Location: Borotín
(49.5055°N, 14.6142°E)
Time: 10:54:15
(UTC+00:00)

Resurs 1-4 Rocket - Pass Details

Date: 27 May 2022
Orbit: 800 x 814 km, 98.7° (Epoch: 27 June)

Event Time Altitude Azimuth Distance (km) Brightness Sun altitude
Rises 00:55:38 0° 14° (NNE) 3,323 6.9 -14.6°
Reaches altitude 10° 00:57:58 10° 13° (NNE) 2,389 5.8 -14.4°
Maximum altitude 01:03:15 82° 287° (WNW) 817 2.1 -14.0°
Enters shadow 01:07:02 20° 201° (SSW) 1,802 3.3 -13.7°
